Weather reports worldwide

Advertisment
Benson, United Kingdom (3658): temperature & dewpoint: 17.03.2017 14:00:00 - 23.03.2017 14:00:00 (GMT)Benson, United Kingdom (3658): temperature -20cm & temperature -100cm: 17.03.2017 14:00:00 - 23.03.2017 14:00:00 (GMT)Benson, United Kingdom (3658): wind speed & gusts: 17.03.2017 14:00:00 - 23.03.2017 14:00:00 (GMT)Benson, United Kingdom (3658): wind direction: 17.03.2017 14:00:00 - 23.03.2017 14:00:00 (GMT)Benson, United Kingdom (3658): reduced air pressure: 17.03.2017 14:00:00 - 23.03.2017 14:00:00 (GMT)Benson, United Kingdom (3658): visibility: 17.03.2017 14:00:00 - 23.03.2017 14:00:00 (GMT)Benson, United Kingdom (3658): precipitation: 17.03.2017 14:00:00 - 23.03.2017 14:00:00 (GMT)
Date & Time tt [°C] td [°C] tt -20cm [°C] tt -100cm [°C] ff [km/h] ff [kn] fx [km/h] fx [kn] dd ppp [hPa] vv [km] rr [mm]
23.03.2017 14:00:00 11,5 3,1 - - 31 17 48 26 ENE 1015,7 10 0,0
23.03.2017 13:00:00 10,2 3,4 - - 34 18 55 30 ENE 1015,8 10 0,0
23.03.2017 12:00:00 10,8 3,3 - - 34 18 54 29 ENE 1015,4 10 0,0
23.03.2017 11:00:00 9,8 2,7 - - 31 17 48 26 ENE 1015,2 10 0,0
23.03.2017 10:00:00 8,7 4,1 - - 16 9 - - ENE 1015,3 10 0,0
23.03.2017 09:00:00 7,2 5,6 8,7 8,9 15 8 - - NE 1014,8 10 0,0
23.03.2017 08:00:00 6,3 5,2 - - 22 12 - - NE 1013,8 10 0,0
23.03.2017 07:00:00 6,0 5,2 - - 21 11 - - NNE 1012,9 6 0,0
23.03.2017 06:00:00 6,0 5,0 - - 18 10 - - NNE 1012,1 7 0,0
23.03.2017 05:00:00 5,5 4,7 - - 16 9 - - NNE 1011,6 10 0,2
23.03.2017 04:00:00 5,3 4,6 - - 13 7 - - NNE 1011,6 2,5 0,4
23.03.2017 03:00:00 4,9 3,8 - - 8 4 - - N 1011,4 7 0,2
23.03.2017 02:00:00 4,2 3,3 - - 4 2 - - NNE 1011,4 7 0,0
23.03.2017 01:00:00 1,7 0,8 - - 5 3 - - ENE 1011,5 10 0,0
23.03.2017 00:00:00 1,7 0,8 - - 4 2 - - NNW 1011,1 10 0,0
22.03.2017 23:00:00 0,8 -0,3 - - 8 4 - - NE 1011,0 10 0,0
22.03.2017 22:00:00 0,4 -0,6 - - 9 5 - - E 1010,6 10 0,0
22.03.2017 21:00:00 1,2 0,3 - - 5 3 - - ENE 1010,0 10 0,0
22.03.2017 20:00:00 5,6 1,0 - - 13 7 - - SE 1009,3 10 0,0
22.03.2017 19:00:00 5,3 1,0 - - 11 6 - - SSE 1008,3 10 0,0
22.03.2017 18:00:00 6,8 1,8 - - 15 8 - - S 1007,3 10 0,0
22.03.2017 17:00:00 9,1 2,4 - - 21 11 - - S 1006,2 10 0,0
22.03.2017 16:00:00 9,3 4,1 - - 5 3 - - SSW 1005,8 10 0,0
22.03.2017 15:00:00 8,8 3,6 - - 21 11 - - S 1005,3 10 0,0
22.03.2017 14:00:00 7,7 4,1 - - 21 11 - - S 1005,2 10 0,0
22.03.2017 13:00:00 7,1 4,9 - - 18 10 - - S 1004,4 10 0,6
22.03.2017 12:00:00 4,9 4,0 - - 18 10 - - S 1004,1 10 3,0
22.03.2017 11:00:00 7,2 5,5 - - 24 13 - - SSE 1003,1 6 0,2
22.03.2017 10:00:00 6,7 5,4 - - 26 14 46 25 SSE 1002,5 7 0,2
22.03.2017 09:00:00 6,5 4,8 9,0 8,9 34 18 54 29 SE 1002,3 10 0,0
22.03.2017 08:00:00 6,3 4,3 - - 34 18 55 30 SE 1002,0 10 1,0
22.03.2017 07:00:00 6,3 3,3 - - 24 13 - - SE 1001,8 10 0,0
22.03.2017 06:00:00 6,1 2,0 - - 24 13 - - SE 1002,3 10 0,0
22.03.2017 05:00:00 6,2 2,0 - - 26 14 46 25 SE 1002,7 10 0,0
22.03.2017 04:00:00 6,1 2,1 - - 28 15 - - SE 1003,3 10 0,0
22.03.2017 03:00:00 6,2 2,0 - - 24 13 - - SE 1004,5 29 0,0
22.03.2017 02:00:00 5,8 2,0 - - 26 14 - - SE 1004,8 30 0,0
22.03.2017 01:00:00 6,3 1,6 - - 28 15 - - SE 1005,9 35 0,0
22.03.2017 00:00:00 6,0 2,0 - - 26 14 - - SSE 1006,7 30 0,0
21.03.2017 23:00:00 5,2 2,7 - - 18 10 - - S 1007,4 10 0,0
21.03.2017 22:00:00 5,4 2,4 - - 22 12 - - SSE 1008,1 10 0,0
21.03.2017 21:00:00 5,1 2,2 - - 21 11 - - SSE 1008,5 10 0,0
21.03.2017 20:00:00 5,4 1,7 - - 16 9 - - S 1009,1 10 0,0
21.03.2017 19:00:00 6,4 2,1 - - 18 10 - - SW 1009,5 10 0,0
21.03.2017 18:00:00 7,3 1,0 - - 24 13 - - SW 1009,2 10 0,0
21.03.2017 17:00:00 8,3 0,7 - - 22 12 - - SSW 1009,1 10 0,0
21.03.2017 16:00:00 8,9 0,6 - - 28 15 - - SSW 1009,2 10 0,0
21.03.2017 15:00:00 8,5 -0,1 - - 22 12 - - SW 1009,5 10 0,0
21.03.2017 14:00:00 10,2 -2,2 - - 31 17 - - SW 1009,5 10 0,0
21.03.2017 13:00:00 9,8 -0,9 - - 31 17 52 28 WSW 1010,2 10 0,0
21.03.2017 12:00:00 9,4 -0,6 - - 29 16 50 27 WSW 1009,9 10 0,0
21.03.2017 11:00:00 8,3 -1,0 - - 28 15 48 26 WSW 1009,9 10 0,0
21.03.2017 10:00:00 7,3 0,1 - - 28 15 - - WSW 1010,1 10 0,0
21.03.2017 09:00:00 6,2 0,8 9,4 8,7 21 11 - - SW 1009,8 10 0,0
21.03.2017 08:00:00 4,9 -0,7 - - 15 8 - - WSW 1009,5 10 0,0
21.03.2017 07:00:00 2,5 -0,9 - - 13 7 - - SW 1009,1 10 0,0
21.03.2017 06:00:00 3,0 -0,7 - - 15 8 - - SW 1008,7 10 0,0
21.03.2017 05:00:00 3,8 0,1 - - 16 9 - - WSW 1007,9 30 0,0
21.03.2017 04:00:00 3,9 0,4 - - 13 7 - - SW 1007,3 10 0,0
21.03.2017 03:00:00 5,1 1,9 - - 18 10 - - WSW 1006,9 10 0,0
21.03.2017 02:00:00 5,8 2,6 - - 18 10 - - SW 1006,2 10 0,0
21.03.2017 01:00:00 5,8 3,6 - - 15 8 - - SW 1005,9 40 0,0
21.03.2017 00:00:00 5,3 3,7 - - 16 9 - - SSW 1005,8 10 0,0
20.03.2017 23:00:00 5,6 4,1 - - 15 8 - - SSW 1005,7 10 0,0
20.03.2017 22:00:00 6,7 4,4 - - 15 8 - - WSW 1005,6 10 0,0
20.03.2017 21:00:00 6,6 4,0 - - 15 8 - - SW 1005,1 10 0,0
20.03.2017 20:00:00 6,7 3,8 - - 11 6 - - SW 1005,0 10 0,0
20.03.2017 19:00:00 8,2 5,0 - - 16 9 - - SW 1004,3 10 0,0
20.03.2017 18:00:00 9,4 5,9 - - 21 11 - - WSW 1003,6 10 0,0
20.03.2017 17:00:00 9,9 6,8 - - 16 9 - - WSW 1003,2 10 0,0
20.03.2017 16:00:00 8,7 7,5 - - 13 7 - - WSW 1002,9 10 0,0
20.03.2017 15:00:00 10,3 7,9 - - 24 13 - - WSW 1002,3 10 1,0
20.03.2017 14:00:00 11,2 9,3 - - 35 19 59 32 SW 1001,8 10 0,6
20.03.2017 13:00:00 11,4 9,1 - - 39 21 61 33 SSW 1001,3 8 0,0
20.03.2017 12:00:00 12,7 7,8 - - 37 20 61 33 SSW 1001,3 10 0,0
20.03.2017 11:00:00 12,3 9,0 - - 37 20 57 31 SW 1001,9 10 0,0
20.03.2017 10:00:00 12,3 9,3 - - 28 15 - - SSW 1002,5 10 0,0
20.03.2017 09:00:00 11,8 9,3 9,7 8,7 28 15 - - SSW 1002,8 10 0,0
20.03.2017 08:00:00 11,5 9,5 - - 22 12 - - SSW 1003,1 10 0,0
20.03.2017 07:00:00 10,9 9,8 - - 24 13 - - SSW 1004,0 10 0,0
20.03.2017 06:00:00 11,0 9,6 - - 24 13 - - SSW 1004,5 15 0,0
20.03.2017 05:00:00 11,0 9,5 - - 24 13 - - SSW 1004,5 10 0,0
20.03.2017 04:00:00 10,7 9,6 - - 16 9 - - SSW 1005,2 10 0,2
20.03.2017 03:00:00 10,8 9,8 - - 16 9 - - S 1005,7 16 0,0
20.03.2017 02:00:00 10,9 9,9 - - 21 11 - - SSW 1006,5 35 0,0
20.03.2017 01:00:00 11,2 9,7 - - 21 11 - - SW 1007,3 35 0,0
20.03.2017 00:00:00 11,3 9,6 - - 21 11 - - SW 1007,5 10 0,0
19.03.2017 23:00:00 11,1 9,9 - - 22 12 - - SSW 1007,8 35 0,0
19.03.2017 22:00:00 11,0 10,1 - - 15 8 - - SW 1008,1 11 0,0
19.03.2017 21:00:00 11,2 9,9 - - 18 10 - - WSW 1008,3 30 0,0
19.03.2017 20:00:00 11,5 9,7 - - 21 11 - - SW 1008,4 10 0,0
19.03.2017 19:00:00 11,7 9,7 - - 22 12 - - WSW 1008,3 35 0,0
19.03.2017 18:00:00 11,7 9,9 - - 26 14 - - SW 1007,9 10 0,0
19.03.2017 17:00:00 12,4 9,2 - - 31 17 55 30 SW 1007,7 10 0,0
19.03.2017 16:00:00 12,7 8,9 - - 31 17 48 26 WSW 1008,1 28 0,0
19.03.2017 15:00:00 12,8 8,9 - - 35 19 63 34 WSW 1008,3 10 0,0
19.03.2017 14:00:00 13,4 7,7 - - 37 20 55 30 WSW 1008,2 27 0,0
19.03.2017 13:00:00 13,0 7,5 - - 26 14 57 31 WSW 1008,5 29 0,0
19.03.2017 12:00:00 12,3 8,9 - - 29 16 48 26 WSW 1008,9 30 0,0
19.03.2017 11:00:00 12,0 9,0 - - 31 17 54 29 WSW 1008,9 40 0,0
19.03.2017 10:00:00 11,9 8,5 - - 31 17 52 28 WSW 1008,6 35 0,0
19.03.2017 09:00:00 11,3 7,8 9,4 8,7 26 14 - - WSW 1009,2 29 0,0
19.03.2017 08:00:00 10,9 7,4 - - 24 13 50 27 WSW 1009,6 10 0,0
19.03.2017 07:00:00 10,7 7,6 - - 34 18 50 27 WSW 1009,8 21 0,0
19.03.2017 06:00:00 11,0 8,2 - - 28 15 - - WSW 1009,3 40 0,0
19.03.2017 05:00:00 11,2 8,6 - - 28 15 50 27 WSW 1010,0 10 0,0
19.03.2017 04:00:00 11,4 9,3 - - 22 12 46 25 SW 1009,9 30 0,0
19.03.2017 03:00:00 11,3 9,4 - - 24 13 - - WSW 1010,4 35 0,0
19.03.2017 02:00:00 11,4 9,3 - - 28 15 46 25 WSW 1011,0 35 0,0
19.03.2017 01:00:00 11,0 9,4 - - 18 10 - - SW 1011,5 10 0,0
19.03.2017 00:00:00 10,9 9,5 - - 18 10 - - WSW 1011,9 22 0,0
18.03.2017 23:00:00 11,2 9,5 - - 24 13 - - WSW 1012,1 10 0,0
18.03.2017 22:00:00 11,2 9,5 - - 21 11 - - SW 1012,3 10 0,0
18.03.2017 21:00:00 11,4 9,4 - - 16 9 - - WSW 1012,9 15 0,0
18.03.2017 20:00:00 11,5 9,5 - - 24 13 - - WSW 1012,3 10 0,0
18.03.2017 19:00:00 11,6 9,4 - - 24 13 - - WSW 1012,0 10 0,0
18.03.2017 18:00:00 11,8 9,5 - - 22 12 - - WSW 1011,2 10 0,0
18.03.2017 17:00:00 12,3 9,5 - - 26 14 46 25 WSW 1011,2 10 0,0
18.03.2017 16:00:00 12,7 9,6 - - 22 12 52 28 WSW 1011,5 23 0,0
18.03.2017 15:00:00 12,7 9,6 - - 22 12 - - WSW 1011,0 22 0,0
18.03.2017 14:00:00 12,6 9,7 - - 24 13 - - WSW 1011,4 10 0,0
18.03.2017 13:00:00 13,2 9,9 - - 24 13 - - WSW 1011,2 10 0,0
18.03.2017 12:00:00 12,8 9,8 - - 24 13 - - WSW 1011,3 10 0,0
18.03.2017 11:00:00 13,4 9,9 - - 21 11 - - W 1011,2 10 0,0
18.03.2017 10:00:00 13,2 9,8 - - 22 12 - - WSW 1010,8 10 0,0
18.03.2017 09:00:00 12,0 9,6 8,9 8,7 22 12 - - WSW 1011,0 10 0,0
18.03.2017 08:00:00 11,4 9,5 - - 22 12 - - WSW 1010,4 10 0,0
18.03.2017 07:00:00 10,8 9,5 - - 22 12 - - WSW 1009,8 10 0,2
18.03.2017 06:00:00 11,0 9,2 - - 18 10 - - W 1009,6 8 0,0
18.03.2017 05:00:00 11,0 9,0 - - 24 13 - - WSW 1008,7 27 0,0
18.03.2017 04:00:00 11,0 9,0 - - 26 14 - - WSW 1008,1 10 0,0
18.03.2017 03:00:00 11,1 9,1 - - 24 13 - - WSW 1008,0 19 0,0
18.03.2017 02:00:00 11,0 8,9 - - 24 13 - - WSW 1008,2 10 0,0
18.03.2017 01:00:00 10,9 8,5 - - 28 15 57 31 WSW 1008,5 25 0,0
18.03.2017 00:00:00 10,6 8,1 - - 34 18 52 28 WSW 1008,5 10 0,0
17.03.2017 23:00:00 9,4 7,5 - - 26 14 - - SW 1009,4 40 0,0
17.03.2017 22:00:00 9,1 6,8 - - 28 15 52 28 SW 1010,4 40 0,0
17.03.2017 21:00:00 9,2 6,1 - - 31 17 57 31 SW 1010,9 40 0,0
17.03.2017 20:00:00 9,3 5,3 - - 34 18 54 29 SW 1011,7 45 0,0
17.03.2017 19:00:00 9,3 4,7 - - 29 16 50 27 SW 1013,1 45 0,0
17.03.2017 18:00:00 9,4 4,2 - - 31 17 54 29 WSW 1013,9 10 0,0
17.03.2017 17:00:00 9,4 4,0 - - 29 16 54 29 WSW 1014,8 10 0,0
17.03.2017 16:00:00 9,7 4,0 - - 34 18 54 29 WSW 1016,0 10 0,0
17.03.2017 15:00:00 9,9 2,7 - - 34 18 46 25 WSW 1017,1 10 0,0
17.03.2017 14:00:00 10,4 2,9 - - 28 15 46 25 WSW 1017,8 10 0,0

tt = temperature
td = dewpoint
tt -20cm = temperature -20cm
tt -100cm = temperature -100cm
ff = wind speed
fx = gusts
dd = wind direction
ppp = reduced air pressure
vv = visibility
rr = precipitation

Next stations